[[{"header":{"parameterUnit":"m.s-1","parameterCategory":1,"la1":30.2991,"la2":30.254,"lo1":-89.0895,"lo2":-89.0444,"dy":0.0017,"dx":0.0017,"nx":28,"ny":28,"refTime":"2025-09-10T21:00:00:Z","depth":0,"parameterNumber":2,"parameterNumberName":"U-component_of_WINDS"},"data":[0,0,0,0,0,0,0,0,0,0,0,0,0,0,0,0,0,0,0,0,0,0,0,0,0,0,0,0,0,0,0,0,0,0,0,0,0,0,0,0,0,0,0,0,0,0,0,0,0,0,0,0,0,0,0,0,0,0,-1.167,-1.1669,0,-1.1575,-1.1573,-1.1572,-1.1521,-1.1521,-1.1521,-1.1521,-1.1421,-1.1419,-1.1416,0,0,0,0,0,0,0,0,0,0,0,0,0,-1.1807,-1.1805,-1.167,-1.1669,-1.1668,-1.1575,-1.1573,-1.1572,-1.1521,-1.1521,-1.1521,-1.1521,-1.1422,-1.1419,-1.1416,0,0,0,0,0,0,0,0,0,0,0,0,0,-1.1733,-1.1804,-1.167,-1.1631,-1.1627,-1.1575,-1.1573,-1.1572,-1.1521,-1.1521,-1.1521,-1.1521,-1.1423,-1.1419,-1.1415,-1.1395,0,0,-1.1404,-1.1402,0,0,0,0,0,0,0,0,-1.1738,-1.1728,-1.1638,-1.1634,-1.1629,-1.156,-1.1585,-1.1512,-1.1521,-1.1561,-1.1521,-1.152,-1.1467,-1.146,-1.1442,-1.139,-1.1386,-1.1403,-1.1401,-1.1399,-1.1398,0,0,0,0,0,0,0,-1.1743,-1.1732,-1.1632,-1.1637,-1.1631,-1.1618,-1.1607,-1.1571,-1.1516,-1.1558,-1.1554,-1.1543,-1.1465,-1.1446,-1.1439,-1.1385,-1.1403,-1.14,-1.1398,-1.1396,-1.1312,-1.1312,0,0,0,0,0,0,-1.1754,-1.1737,-1.1635,-1.1629,-1.1684,-1.1616,-1.1604,-1.1582,-1.1516,-1.1506,-1.1543,-1.1541,-1.1452,-1.1444,-1.1436,-1.1408,-1.1399,-1.1396,-1.1394,-1.1312,-1.1312,-1.1312,0,0,0,0,0,0,-1.1758,-1.1746,-1.1639,-1.1682,-1.1667,-1.1613,-1.1589,-1.158,-1.1561,-1.1506,-1.1495,-1.1534,-1.1452,-1.1441,-1.1406,-1.1403,-1.1394,-1.1391,-1.1312,-1.1312,-1.1312,-1.1351,0,0,0,0,0,0,-1.1762,-1.1747,-1.1739,-1.1682,-1.1665,-1.1611,-1.1589,-1.1578,-1.1555,-1.1551,-1.1495,-1.1485,-1.1451,-1.1412,-1.1402,-1.1398,-1.1388,-1.1312,-1.1312,-1.1312,-1.135,-1.1353,-1.1355,0,0,0,0,0,-1.1767,-1.1754,-1.1739,-1.1727,-1.1654,-1.1611,-1.1602,-1.1563,-1.1555,-1.1546,-1.1511,-1.1487,-1.1405,-1.1408,-1.1397,-1.1392,-1.1311,-1.1312,-1.1312,-1.1349,-1.1352,-1.1355,0,0,0,0,0,0,-1.1811,-1.1745,-1.1729,-1.1697,-1.166,-1.1603,-1.159,-1.1568,-1.1532,-1.153,-1.1483,-1.1471,-1.144,-1.1412,-1.1417,-1.1369,-1.1356,-1.1354,-1.1388,-1.1391,-1.1394,-1.1401,-1.1384,0,0,0,0,0,-1.1817,-1.1788,-1.1732,-1.171,-1.1692,-1.1645,-1.1625,-1.1598,-1.1558,-1.1542,-1.1504,-1.1466,-1.1431,-1.141,-1.1375,-1.1346,-1.1333,-1.1337,-1.134,-1.1342,-1.134,-1.1324,-1.1325,-1.1312,-1.1312,-1.1312,0,0,-1.1829,-1.179,-1.1774,-1.1718,-1.1686,-1.1657,-1.1632,-1.1602,-1.158,-1.1537,-1.1502,-1.1473,-1.1427,-1.1395,-1.1379,-1.1371,-1.1341,-1.1342,-1.1344,-1.1341,-1.1324,-1.1325,-1.1326,-1.1312,-1.1312,-1.1312,0,0,-1.1836,-1.1804,-1.1781,-1.1751,-1.1704,-1.1672,-1.1667,-1.1613,-1.1593,-1.1556,-1.1524,-1.1497,-1.1439,-1.1408,-1.1384,-1.1381,-1.1358,-1.1371,-1.1384,-1.1368,-1.1369,-1.137,-1.1369,-1.1369,-1.137,-1.137,-1.137,0,-1.1857,-1.1812,-1.1773,-1.1745,-1.1721,-1.1682,-1.1659,-1.1631,-1.1575,-1.1559,-1.1551,-1.1478,-1.1444,-1.1405,-1.1404,-1.1387,-1.1379,-1.1377,-1.1373,-1.1373,-1.1373,-1.1371,-1.1371,-1.1372,-1.1372,-1.1371,-1.1371,0,-1.184,-1.181,-1.1797,-1.1745,-1.172,-1.1694,-1.1651,-1.163,-1.1606,-1.1576,-1.154,-1.1498,-1.1455,-1.1443,-1.142,-1.1401,-1.1397,-1.1382,-1.1367,-1.1377,-1.1375,-1.1374,-1.1375,-1.1374,-1.1373,-1.1373,0,0,-1.1871,-1.1798,-1.1794,-1.1771,-1.1716,-1.1692,-1.1665,-1.1623,-1.1606,-1.1569,-1.1545,-1.1498,-1.1484,-1.1457,-1.1429,-1.1416,-1.1416,-1.1401,-1.14,-1.1406,-1.1393,-1.1405,-1.1405,-1.1401,-1.14,-1.14,-1.1397,0,-1.187,-1.1821,-1.1785,-1.1749,-1.172,-1.1684,-1.1661,-1.1625,-1.1596,-1.1567,-1.1535,-1.1502,-1.1486,-1.1469,-1.1454,-1.1419,-1.1413,-1.1419,-1.1378,-1.1377,-1.139,-1.1404,-1.1416,-1.1415,-1.1396,-1.1396,-1.1395,0,-1.1863,-1.1828,-1.179,-1.1739,-1.1726,-1.1705,-1.1665,-1.1638,-1.1597,-1.1577,-1.1548,-1.152,-1.149,-1.1479,-1.1437,-1.1443,-1.1424,-1.1404,-1.1403,-1.1397,-1.1387,-1.1398,-1.1413,-1.1413,-1.1394,-1.1394,-1.1394,0,-1.1889,-1.1833,-1.1803,-1.1783,-1.1724,-1.171,-1.1685,-1.1644,-1.1621,-1.1586,-1.1571,-1.1532,-1.1511,-1.1481,-1.1444,-1.1439,-1.1406,-1.1392,-1.1388,-1.1389,-1.1382,-1.1383,-1.1395,-1.1371,-1.1371,-1.1371,-1.1371,0,-1.1892,-1.187,-1.1814,-1.1795,-1.177,-1.1729,-1.1704,-1.1676,-1.164,-1.1615,-1.1581,-1.1558,-1.151,-1.1481,-1.1452,-1.1422,-1.1412,-1.1395,-1.1388,-1.1398,-1.14,-1.1385,-1.1384,-1.1371,-1.1371,-1.1371,-1.1371,0,-1.1917,-1.1879,-1.1844,-1.1791,-1.1777,-1.176,-1.1715,-1.1695,-1.1665,-1.1634,-1.1625,-1.1577,-1.1542,-1.1502,-1.1453,-1.1433,-1.1405,-1.1394,-1.1419,-1.1415,-1.1414,-1.1415,-1.1415,-1.1413,-1.1391,-1.1392,-1.1392,0,-1.1921,-1.1904,-1.1849,-1.1831,-1.1806,-1.1777,-1.1754,-1.1713,-1.1691,-1.1643,-1.1629,-1.1592,-1.156,-1.1505,-1.1466,-1.1429,-1.1417,-1.1419,-1.1411,-1.1422,-1.1417,-1.1418,-1.1416,-1.1422,-1.1422,-1.1423,-1.1423,0,-1.1933,-1.1915,-1.1884,-1.1846,-1.182,-1.1788,-1.1755,-1.1742,-1.1694,-1.1671,-1.1635,-1.161,-1.1561,-1.1524,-1.1483,-1.1456,-1.1432,-1.1426,-1.1423,-1.1434,-1.1449,-1.1441,-1.1426,-1.1426,-1.1426,-1.1426,-1.1425,-1.1425,-1.1947,-1.193,-1.189,-1.1856,-1.1827,-1.1797,-1.1777,-1.1744,-1.1714,-1.1671,-1.1649,-1.1614,-1.1573,-1.1515,-1.1489,-1.1461,-1.1453,-1.1449,-1.1448,-1.1447,-1.1451,-1.1454,-1.1453,-1.1453,-1.1453,-1.1453,-1.1453,0,-1.1957,-1.193,-1.1899,-1.1855,-1.1828,-1.1809,-1.1771,-1.175,-1.172,-1.1685,-1.1654,-1.1613,-1.1578,-1.1537,-1.1498,-1.1484,-1.1472,-1.1475,-1.1476,-1.147,-1.146,-1.1466,-1.1486,-1.1486,-1.1486,-1.1486,-1.1486,-1.1486,-1.1959,-1.193,-1.1907,-1.1863,-1.1835,-1.18,-1.1781,-1.1753,-1.1725,-1.1681,-1.1652,-1.1625,-1.1588,-1.1547,-1.1514,-1.1502,-1.149,-1.1497,-1.1482,-1.1473,-1.1471,-1.1468,-1.1474,-1.1494,-1.1494,-1.1495,-1.1495,-1.1495]},{"header":{"parameterUnit":"m.s-1","parameterCategory":1,"la1":30.2991,"la2":30.254,"lo1":-89.0895,"lo2":-89.0444,"dy":0.0017,"dx":0.0017,"nx":28,"ny":28,"refTime":"2025-09-10T21:00:00:Z","depth":0,"parameterNumber":3,"parameterNumberName":"V-component_of_WINDS"},"data":[0,0,0,0,0,0,0,0,0,0,0,0,0,0,0,0,0,0,0,0,0,0,0,0,0,0,0,0,0,0,0,0,0,0,0,0,0,0,0,0,0,0,0,0,0,0,0,0,0,0,0,0,0,0,0,0,0,0,0.791,0.791,0,0.7912,0.7912,0.7912,0.7904,0.7903,0.7903,0.7903,0.7903,0.7903,0.7904,0,0,0,0,0,0,0,0,0,0,0,0,0,0.7896,0.7896,0.791,0.791,0.791,0.7912,0.7912,0.7912,0.7904,0.7903,0.7903,0.7903,0.7903,0.7903,0.7904,0,0,0,0,0,0,0,0,0,0,0,0,0,0.7901,0.7897,0.791,0.7906,0.7906,0.7912,0.7912,0.7912,0.7904,0.7903,0.7903,0.7903,0.7903,0.7903,0.7904,0.7913,0,0,0.7905,0.7905,0,0,0,0,0,0,0,0,0.79,0.7901,0.7907,0.7907,0.7906,0.7907,0.7907,0.7912,0.7904,0.7905,0.7903,0.7903,0.7905,0.7905,0.7906,0.7913,0.7913,0.7905,0.7905,0.7905,0.7905,0,0,0,0,0,0,0,0.79,0.7901,0.7911,0.7907,0.7907,0.7903,0.7904,0.7908,0.7907,0.7904,0.7904,0.7904,0.7904,0.7906,0.7906,0.7913,0.7905,0.7905,0.7905,0.7905,0.7925,0.7926,0,0,0,0,0,0,0.7901,0.7901,0.7911,0.7911,0.7902,0.7904,0.7904,0.7907,0.7907,0.7906,0.7905,0.7904,0.7905,0.7905,0.7906,0.7915,0.7905,0.7905,0.7906,0.7925,0.7926,0.7926,0,0,0,0,0,0,0.79,0.7902,0.7911,0.7906,0.7907,0.7905,0.7908,0.7908,0.7909,0.7907,0.7906,0.7906,0.7905,0.7905,0.7911,0.7915,0.7906,0.7906,0.7925,0.7925,0.7926,0.7935,0,0,0,0,0,0,0.79,0.7902,0.7906,0.7906,0.7907,0.7917,0.7908,0.7908,0.791,0.7909,0.7908,0.7908,0.7905,0.791,0.7911,0.7916,0.7906,0.7924,0.7925,0.7926,0.7935,0.7936,0.7937,0,0,0,0,0,0.7899,0.7909,0.7906,0.7908,0.7913,0.7917,0.7918,0.7915,0.791,0.7914,0.7912,0.7908,0.7915,0.7911,0.7912,0.7916,0.7924,0.7925,0.7926,0.7934,0.7936,0.7937,0,0,0,0,0,0,0.7909,0.7909,0.7906,0.7916,0.7916,0.7916,0.792,0.7917,0.7919,0.7918,0.7913,0.7913,0.7919,0.7918,0.7914,0.7924,0.7918,0.7919,0.7925,0.7926,0.7928,0.7927,0.7906,0,0,0,0,0,0.7913,0.7917,0.7916,0.7925,0.7925,0.7923,0.7925,0.7922,0.7922,0.7923,0.7922,0.7921,0.7923,0.7925,0.7927,0.7934,0.7933,0.7938,0.7939,0.794,0.7941,0.7943,0.7945,0.7928,0.7928,0.7928,0,0,0.7919,0.792,0.7923,0.7926,0.7927,0.793,0.7923,0.7928,0.793,0.7923,0.7928,0.7927,0.7927,0.7933,0.7935,0.7932,0.7945,0.7941,0.7942,0.7942,0.7944,0.7946,0.7947,0.7929,0.7929,0.7929,0,0,0.7933,0.7935,0.7941,0.7941,0.7942,0.794,0.7941,0.7941,0.794,0.7945,0.7939,0.7941,0.7946,0.7945,0.7945,0.7957,0.7952,0.7957,0.7964,0.7967,0.7968,0.7969,0.7972,0.7973,0.7958,0.7958,0.7958,0,0.7942,0.7948,0.7945,0.7949,0.795,0.7944,0.795,0.795,0.7951,0.7951,0.7948,0.7952,0.7951,0.7956,0.7959,0.796,0.796,0.7957,0.7968,0.7969,0.797,0.7973,0.7974,0.7959,0.7959,0.7959,0.7959,0,0.7957,0.7961,0.7966,0.7967,0.7968,0.7973,0.797,0.7971,0.7968,0.7966,0.797,0.7969,0.797,0.7971,0.7968,0.7975,0.7973,0.7969,0.7963,0.7972,0.7975,0.7976,0.796,0.7959,0.7959,0.7959,0,0,0.7977,0.7976,0.7977,0.7977,0.7976,0.7979,0.7983,0.7984,0.7985,0.7985,0.7987,0.799,0.7986,0.7986,0.7983,0.7985,0.7992,0.798,0.798,0.7982,0.7998,0.8001,0.8002,0.799,0.799,0.799,0.7998,0,0.799,0.7997,0.7994,0.8001,0.8003,0.7997,0.8,0.8,0.7997,0.7999,0.7996,0.7997,0.7993,0.7992,0.7994,0.7991,0.7995,0.7991,0.799,0.799,0.799,0.8003,0.8006,0.8014,0.7999,0.7999,0.7999,0,0.8006,0.8006,0.8014,0.8011,0.8012,0.8015,0.8015,0.8017,0.8015,0.8013,0.8013,0.8008,0.8011,0.8005,0.8007,0.8004,0.8003,0.8002,0.8002,0.8001,0.7995,0.8002,0.8016,0.8017,0.8001,0.8001,0.8,0,0.8018,0.8021,0.8025,0.8025,0.8023,0.8025,0.8024,0.8022,0.8022,0.8022,0.8021,0.8021,0.8021,0.802,0.8015,0.8012,0.8017,0.8012,0.8015,0.8015,0.8016,0.8016,0.8029,0.8017,0.8017,0.8017,0.8017,0,0.8032,0.8036,0.8031,0.8033,0.8037,0.8033,0.8037,0.8035,0.8033,0.8034,0.8029,0.803,0.8024,0.8024,0.802,0.8022,0.8022,0.802,0.8018,0.802,0.802,0.8019,0.8018,0.8017,0.8017,0.8017,0.8017,0,0.8046,0.8043,0.8047,0.8044,0.8043,0.8046,0.8043,0.8045,0.8042,0.8043,0.8043,0.8039,0.8038,0.8034,0.8032,0.803,0.8032,0.803,0.8033,0.8032,0.8035,0.8034,0.8048,0.8049,0.8037,0.8037,0.8037,0,0.8055,0.8058,0.8055,0.8055,0.8055,0.8056,0.8056,0.8051,0.8051,0.8049,0.805,0.8049,0.8048,0.8048,0.8044,0.8042,0.804,0.8045,0.804,0.804,0.8039,0.8038,0.8038,0.8045,0.8046,0.8046,0.8046,0,0.807,0.8067,0.8068,0.8068,0.8068,0.8067,0.8066,0.8067,0.8061,0.8061,0.8061,0.806,0.8059,0.8057,0.8055,0.8053,0.8048,0.8048,0.8048,0.8049,0.805,0.8048,0.8035,0.8047,0.8047,0.8047,0.8047,0.8047,0.808,0.8082,0.808,0.808,0.8079,0.8078,0.8079,0.8076,0.8076,0.8074,0.8071,0.8071,0.8068,0.8064,0.8062,0.8061,0.8058,0.8059,0.8059,0.806,0.806,0.805,0.8061,0.8061,0.8061,0.8061,0.8061,0,0.8094,0.8092,0.8092,0.8091,0.8091,0.8087,0.8085,0.8085,0.8085,0.8083,0.8082,0.808,0.8079,0.8074,0.8072,0.8072,0.807,0.8072,0.8071,0.8071,0.8063,0.8062,0.8074,0.8074,0.8074,0.8074,0.8074,0.8074,0.8101,0.8103,0.8101,0.8102,0.81,0.81,0.8099,0.8097,0.8095,0.8094,0.8093,0.809,0.8087,0.8084,0.8082,0.8081,0.808,0.8082,0.808,0.8073,0.8071,0.807,0.8069,0.8082,0.8082,0.8087,0.8087,0.8088]}]]